Regional Weather Roundup
Issued by NWS Little Rock, AR

Home | Current Version | Previous Version | Text Only | Print | Product List | Glossary On
Versions: 1 2 3 4 5 6 7 8 9 10 11 12 13 14 15 16 17 18 19 20 21 22 23 24 25 26 27 28 29 30 31 32 33 34 35 36 37 38 39 40 41 42 43 44 45 46 47 48 49 50
000
ASUS44 KLZK 220405
RWRLZK

WEATHER ROUNDUP FOR ARKANSAS
NATIONAL WEATHER SERVICE LITTLE ROCK AR
1100 PM CDT TUE OCT 21 2014

NOTE: "FAIR" INDICATES FEW OR NO CLOUDS BELOW 12,000 FEET WITH NO
SIGNIFICANT WEATHER AND/OR OBSTRUCTIONS TO VISIBILITY.

ARZ001-003-010-029-220500-
NORTHWEST ARKANSAS

CITY           SKY/WX    TMP DP  RH WIND       PRES   REMARKS
FAYETTEVILLE   CLEAR     50  50 100 CALM      30.13R
FORT SMITH     CLEAR     63  59  87 NE3       30.09R
HARRISON       CLEAR     57  50  77 S3        30.14R
BENTONVILLE    CLEAR     59  52  77 E6        30.13S
ROGERS         CLEAR     59  55  87 E5        30.14R
SILOAM SPGS    PTCLDY    57  50  77 E3        30.13S
HIGHFILL       CLEAR     56  53  90 CALM      30.12R
$$

ARZ004-005-016-220500-
NORTH CENTRAL ARKANSAS

CITY           SKY/WX    TMP DP  RH WIND       PRES   REMARKS
BATESVILLE     CLEAR     54  48  82 NW3       30.12S
FLIPPIN        CLEAR     52  45  76 CALM      30.13S
MTN HOME       CLEAR     54  47  77 CALM      30.12S
$$

ARZ040-041-220500-
WEST CENTRAL ARKANSAS

CITY           SKY/WX    TMP DP  RH WIND       PRES   REMARKS
MENA           CLEAR     59  59 100 CALM      30.12S
MOUNT IDA      CLEAR     56  55  97 CALM      30.09S FOG
$$

ARZ009-017-025-026-028-220500-
NORTHEAST ARKANSAS

CITY           SKY/WX    TMP DP  RH WIND       PRES   REMARKS
CORNING        FAIR      55  48  76 NE7       30.15R
JONESBORO      CLEAR     58  49  72 NE10      30.13R
NEWPORT        CLEAR     55  51  86 N9        30.14R
WALNUT RIDGE   CLEAR     55  46  71 NE5       30.14R
BLYTHEVILLE    CLEAR     55  49  80 NE6       30.13R
$$

ARZ022-023-033-042-044-220500-
CENTRAL ARKANSAS

CITY           SKY/WX    TMP DP  RH WIND       PRES   REMARKS
LITTLE ROCK    CLEAR     59  54  83 CALM      30.11R
N LITTLE ROCK  CLEAR     62  52  70 E3        30.11R
JACKSONVILLE   CLEAR     54  52  92 CALM      30.11R
SEARCY         CLEAR     53  50  89 CALM      30.13R
HOT SPRINGS    CLEAR     57  54  89 CALM      30.10S
RUSSELLVILLE   CLEAR     55  53  93 CALM      30.11R
$$

ARZ036-220500-
EAST ARKANSAS

CITY           SKY/WX    TMP DP  RH WIND       PRES   REMARKS
WEST MEMPHIS   CLEAR     55  50  83 N5        30.10R
$$

ARZ050-053-066-070-073-220500-
SOUTHWEST ARKANSAS

CITY           SKY/WX    TMP DP  RH WIND       PRES   REMARKS
ARKADELPHIA    FAIR      59  59 100 CALM      30.10S
CAMDEN         CLEAR     57  55  94 CALM      30.09S FOG
TEXARKANA      CLEAR     65  59  81 SE5       30.08S
EL DORADO      CLEAR     59  58  96 CALM      30.09R FOG
DE QUEEN       CLOUDY    64  64 100 CALM      30.07R FOG
$$

ARZ056-057-069-220500-
SOUTHEAST ARKANSAS

CITY           SKY/WX    TMP DP  RH WIND       PRES   REMARKS
PINE BLUFF     CLEAR     62  49  62 CALM      30.10R
STUTTGART      CLEAR     57  48  72 NE8       30.10F
MONTICELLO     CLEAR     58  55  90 CALM      30.10R

$$





USA.gov is the U.S. government's official web portal to all federal, state and local government web resources and services.